Weather Roundup
Issued by NWS Springfield, MO

Home | Current Version | Previous Version | Text Only | Print | Product List | Glossary On
Versions: 1 2 3 4 5 6 7 8 9 10 11 12 13 14 15 16 17 18 19 20 21 22 23 24 25 26 27 28 29 30 31 32 33 34 35 36 37 38 39 40 41 42 43 44 45 46 47 48 49 50
000
NZUS99 KSGF 212307
HRRSGF

HOURLY WEATHER
NATIONAL WEATHER SERVICE SPRINGFIELD MO
500 PM CST WED FEB 21 2018

......SGF CWA......

CITY           SKY/WX    TMP DP  RH WIND       PRES   REMARKS
SPRINGFIELD    CLOUDY    28  26  92 NE12      30.41R WCI  18
JOPLIN         FRZ RAIN  28  27  96 NE6       30.45F WCI  22
WEST PLAINS    CLOUDY    30  29  96 N10       30.39R FOG     WCI  21
ROLLA          CLOUDY    27  25  92 N9        30.50R WCI  18
OSAGE BEACH    CLOUDY    27  25  92 MISG      30.51R
BRANSON        FRZ RAIN  30  30 100 N9        30.42R VSB 1/2 WCI  22

......SURROUNDING SGF CWA......

CITY           SKY/WX    TMP DP  RH WIND       PRES   REMARKS
CHANUTE        CLOUDY    28  24  85 NE15      30.44F WCI  16
PARSONS        CLOUDY    27  26  96 E8        30.44F WCI  19
COFFEYVILLE    CLOUDY    28  25  88 NE16      30.44F WCI  16
EMPORIA        PTSUNNY   24  18  77 NE16      30.45F WCI  11
GROVE OK       MIX PCPN  32  30  93 NE6       30.44F WCI  26
ROGERS AR      LGT SNOW  30  28  93 NE8       30.41S FOG     WCI  23
SILOAM SPRINGS MIX PCPN  31  30  96 E9G17     30.37F FOG     WCI  23
HARRISON AR    FRZ RAIN  29  29 100 N8        30.38S VSB 1   WCI  21
NEAR YELLVILLE LGT RAIN  33  32  96 N7G16     30.41R FOG     WCI  27

......KANSAS AND MISSOURI......

CITY           SKY/WX    TMP DP  RH WIND       PRES   REMARKS
KANSAS CTY INT CLOUDY    27  22  81 NE13      30.51R WCI  16
DOWNTOWN KC    PTSUNNY   29  20  69 NE10      30.52R WCI  20
COLUMBIA       CLOUDY    29  25  85 NE9       30.52R WCI  20
SEDALIA        CLOUDY    31  25  78 NE8       30.54R WCI  23
ST JOSEPH      CLOUDY    28  22  78 NE9       30.54R WCI  19
ST LOUIS       FRZ DRZL  30  28  92 N9        30.53R FOG     WCI  22
SPIRIT OF STL  CLOUDY    30  27  88 NE8       30.52R WCI  22
KIRKSVILLE     FAIR      28  20  71 NE12      30.55R WCI  18
WICHITA        CLOUDY    27  19  72 NE16      30.42R WCI  15
TOPEKA         CLOUDY    28  21  75 NE12      30.52R WCI  18
OLATHE         PTSUNNY   26  22  84 NE10      30.51R WCI  16

......TENNESSEE......

CITY           SKY/WX    TMP DP  RH WIND       PRES   REMARKS
MEMPHIS        LGT RAIN  46  44  93 NE12      30.33S
NASHVILLE      CLOUDY    56  52  86 N9G20     30.34R

......ARKANSAS.......

CITY           SKY/WX    TMP DP  RH WIND       PRES   REMARKS
FAYETTEVILLE   FRZ RAIN  31  31 100 NE5       30.39S FOG     WCI  26
FT SMITH       RAIN      38  37  97 N9        30.38R FOG     WCI  31
LITTLE ROCK    RAIN      43  43 100 E18       30.23F FOG

......OKLAHOMA.......

CITY           SKY/WX    TMP DP  RH WIND       PRES   REMARKS
TULSA          FRZ RAIN  30  28  92 NE13      30.40F WCI  20
PONCA CITY     CLOUDY    27  22  81 NE14      30.41F WCI  16
MCALESTER      MIX PCPN  31  30  96 N7        30.38R WCI  24
OKLAHOMA CITY  CLOUDY    25  22  88 N13       30.33F WCI  14

......IOWA............

CITY           SKY/WX    TMP DP  RH WIND       PRES   REMARKS
DES MOINES     CLOUDY    25  15  66 NE10      30.60S WCI  15
QUAD CITIES    FAIR      29  18  63 N7        30.60R WCI  22

......ILLINOIS........

CITY           SKY/WX    TMP DP  RH WIND       PRES   REMARKS
QUINCY         FAIR      28  23  81 NE15      30.54R WCI  16
CHICAGO        CLOUDY    30  20  66 NE12      30.59R WCI  20



USA.gov is the U.S. government's official web portal to all federal, state and local government web resources and services.